[[{"header":{"parameterUnit":"m.s-1","parameterCategory":1,"la1":30.2991,"la2":30.254,"lo1":-89.0895,"lo2":-89.0444,"dy":0.0017,"dx":0.0017,"nx":28,"ny":28,"refTime":"2024-12-31T09:00:00:Z","depth":0,"parameterNumber":2,"parameterNumberName":"U-component_of_WINDS"},"data":[0,0,0,0,0,0,0,0,0,0,0,0,0,0,0,0,0,0,0,0,0,0,0,0,0,0,0,0,0,0,0,0,0,0,0,0,0,0,0,0,0,0,0,0,0,0,0,0,0,0,0,0,0,0,0,0,0,0,-0.0685,-0.0686,0,-0.073,-0.073,-0.0731,-0.0717,-0.0716,-0.0715,-0.0714,-0.0763,-0.0765,-0.0767,0,0,0,0,0,0,0,0,0,0,0,0,0,-0.0591,-0.0593,-0.0685,-0.0686,-0.0686,-0.0729,-0.073,-0.0731,-0.0717,-0.0716,-0.0715,-0.0714,-0.0762,-0.0765,-0.0767,0,0,0,0,0,0,0,0,0,0,0,0,0,-0.0633,-0.0593,-0.0685,-0.0685,-0.0685,-0.0729,-0.073,-0.0731,-0.0717,-0.0716,-0.0714,-0.0713,-0.0761,-0.0764,-0.0768,-0.0816,0,0,-0.0778,-0.0779,0,0,0,0,0,0,0,0,-0.0631,-0.0637,-0.0684,-0.0685,-0.0685,-0.0716,-0.0715,-0.076,-0.0718,-0.0705,-0.0714,-0.0712,-0.0749,-0.0753,-0.0764,-0.0819,-0.0821,-0.0778,-0.078,-0.0781,-0.0782,0,0,0,0,0,0,0,-0.0628,-0.0635,-0.0703,-0.0685,-0.0685,-0.0683,-0.0687,-0.0723,-0.0734,-0.0706,-0.0705,-0.071,-0.0749,-0.0761,-0.0765,-0.0821,-0.0778,-0.0781,-0.0783,-0.0784,-0.0918,-0.0919,0,0,0,0,0,0,-0.0624,-0.0633,-0.0701,-0.0704,-0.0654,-0.0686,-0.0691,-0.0708,-0.0734,-0.0736,-0.0712,-0.071,-0.0756,-0.0762,-0.0767,-0.0826,-0.0781,-0.0784,-0.0786,-0.0916,-0.0918,-0.092,0,0,0,0,0,0,-0.0622,-0.0631,-0.07,-0.0668,-0.0677,-0.0689,-0.0708,-0.0709,-0.0722,-0.0738,-0.074,-0.0722,-0.0755,-0.0762,-0.0804,-0.0828,-0.0786,-0.0789,-0.0914,-0.0917,-0.0919,-0.0945,0,0,0,0,0,0,-0.062,-0.063,-0.0648,-0.0669,-0.0678,-0.0735,-0.0709,-0.0711,-0.0727,-0.0725,-0.0749,-0.0751,-0.0755,-0.0799,-0.0807,-0.0832,-0.0791,-0.0912,-0.0916,-0.0918,-0.0942,-0.0948,-0.0953,0,0,0,0,0,-0.0616,-0.0655,-0.0649,-0.0658,-0.0701,-0.0737,-0.0742,-0.0745,-0.0729,-0.0748,-0.0758,-0.0751,-0.0823,-0.0803,-0.0812,-0.0838,-0.0911,-0.0915,-0.0918,-0.094,-0.0947,-0.0953,0,0,0,0,0,0,-0.0638,-0.0657,-0.0652,-0.0697,-0.0715,-0.0734,-0.0758,-0.0752,-0.0776,-0.0773,-0.0776,-0.0782,-0.0824,-0.0835,-0.0813,-0.0887,-0.0865,-0.0871,-0.0879,-0.0885,-0.0891,-0.0888,-0.0794,0,0,0,0,0,-0.0648,-0.0674,-0.069,-0.0729,-0.0738,-0.0746,-0.0762,-0.0762,-0.0781,-0.0789,-0.0802,-0.0822,-0.085,-0.0868,-0.0894,-0.0943,-0.0949,-0.0965,-0.0971,-0.0975,-0.098,-0.1008,-0.1016,-0.0932,-0.0932,-0.0932,0,0,-0.0669,-0.0683,-0.07,-0.0733,-0.0747,-0.0775,-0.0753,-0.0784,-0.0805,-0.0794,-0.0834,-0.0844,-0.0867,-0.0912,-0.0933,-0.0923,-0.1004,-0.098,-0.0983,-0.0986,-0.1012,-0.102,-0.1027,-0.0934,-0.0934,-0.0933,0,0,-0.0723,-0.0735,-0.0769,-0.0783,-0.0804,-0.0809,-0.0817,-0.0836,-0.0843,-0.0882,-0.0875,-0.09,-0.0947,-0.0963,-0.0978,-0.1035,-0.103,-0.1044,-0.1073,-0.11,-0.1106,-0.1112,-0.1134,-0.1142,-0.1049,-0.1049,-0.1049,0,-0.0747,-0.0788,-0.0787,-0.0818,-0.0834,-0.0823,-0.0858,-0.0872,-0.0901,-0.0912,-0.09,-0.0958,-0.0972,-0.1022,-0.1036,-0.1047,-0.1057,-0.1042,-0.1105,-0.1111,-0.1117,-0.1138,-0.1146,-0.105,-0.105,-0.105,-0.105,0,-0.0817,-0.0846,-0.0871,-0.0897,-0.0915,-0.0948,-0.0953,-0.0971,-0.0969,-0.0976,-0.1017,-0.1033,-0.1062,-0.1074,-0.1072,-0.1123,-0.1116,-0.1104,-0.1083,-0.1126,-0.1146,-0.1154,-0.1053,-0.1052,-0.1052,-0.1051,0,0,-0.0888,-0.0912,-0.0922,-0.0934,-0.0955,-0.0978,-0.101,-0.1037,-0.1053,-0.1073,-0.1101,-0.114,-0.1129,-0.1145,-0.1146,-0.1169,-0.1215,-0.1154,-0.1155,-0.1166,-0.1272,-0.1282,-0.1291,-0.121,-0.1211,-0.1212,-0.1271,0,-0.0944,-0.1,-0.1,-0.1052,-0.1079,-0.1068,-0.1096,-0.1113,-0.112,-0.1144,-0.1152,-0.118,-0.1162,-0.1172,-0.1194,-0.1204,-0.1236,-0.12,-0.1237,-0.1239,-0.1234,-0.1302,-0.1312,-0.1367,-0.1278,-0.128,-0.1281,0,-0.1018,-0.1039,-0.1093,-0.111,-0.1121,-0.1147,-0.1172,-0.1194,-0.1213,-0.1216,-0.1234,-0.123,-0.1264,-0.1239,-0.1286,-0.1261,-0.1276,-0.1283,-0.1285,-0.1291,-0.1264,-0.131,-0.1384,-0.1393,-0.1293,-0.1292,-0.1291,0,-0.1065,-0.1107,-0.1145,-0.1155,-0.1176,-0.1194,-0.1204,-0.1221,-0.1237,-0.1259,-0.127,-0.1295,-0.131,-0.133,-0.1334,-0.1315,-0.1381,-0.1357,-0.1386,-0.1386,-0.1402,-0.1401,-0.1481,-0.1408,-0.1408,-0.1408,-0.1408,0,-0.1129,-0.1164,-0.1167,-0.1191,-0.1228,-0.1227,-0.1265,-0.1273,-0.1288,-0.1314,-0.1306,-0.1331,-0.1333,-0.1358,-0.1361,-0.14,-0.1406,-0.1411,-0.1412,-0.1413,-0.1412,-0.1424,-0.1421,-0.141,-0.141,-0.1409,-0.1409,0,-0.119,-0.1193,-0.1235,-0.125,-0.1255,-0.1282,-0.1296,-0.1319,-0.1323,-0.1356,-0.1364,-0.1372,-0.1401,-0.1406,-0.1441,-0.1443,-0.1489,-0.1485,-0.1483,-0.1483,-0.1513,-0.151,-0.1605,-0.1617,-0.1534,-0.1535,-0.1536,0,-0.1232,-0.1258,-0.1276,-0.1292,-0.1302,-0.1328,-0.1344,-0.1343,-0.1361,-0.1383,-0.1404,-0.1432,-0.1454,-0.1502,-0.1511,-0.1538,-0.1535,-0.1566,-0.154,-0.154,-0.1538,-0.1537,-0.154,-0.1572,-0.1573,-0.1574,-0.1575,0,-0.1306,-0.1306,-0.1329,-0.1353,-0.1372,-0.1391,-0.1408,-0.1422,-0.1424,-0.1444,-0.1473,-0.149,-0.1525,-0.1553,-0.1579,-0.159,-0.1583,-0.1582,-0.1591,-0.1593,-0.1592,-0.1594,-0.1499,-0.1581,-0.158,-0.158,-0.158,-0.1579,-0.136,-0.1382,-0.1398,-0.1424,-0.1437,-0.1453,-0.1476,-0.1482,-0.1506,-0.1534,-0.1532,-0.1564,-0.1582,-0.1616,-0.1628,-0.1654,-0.1644,-0.1656,-0.1659,-0.1662,-0.1666,-0.1585,-0.1658,-0.1658,-0.1658,-0.1658,-0.1657,0,-0.1435,-0.1444,-0.1467,-0.1492,-0.1512,-0.1502,-0.1521,-0.1539,-0.1567,-0.1583,-0.1605,-0.1639,-0.1666,-0.1677,-0.1703,-0.1722,-0.172,-0.1729,-0.1729,-0.1732,-0.1672,-0.1663,-0.1731,-0.1731,-0.1731,-0.173,-0.173,-0.173,-0.1476,-0.1514,-0.1516,-0.156,-0.1569,-0.16,-0.1611,-0.1627,-0.164,-0.1677,-0.1699,-0.1705,-0.172,-0.1747,-0.1771,-0.1774,-0.1785,-0.1796,-0.1798,-0.1743,-0.1736,-0.1729,-0.172,-0.1798,-0.1798,-0.1855,-0.1855,-0.1856]},{"header":{"parameterUnit":"m.s-1","parameterCategory":1,"la1":30.2991,"la2":30.254,"lo1":-89.0895,"lo2":-89.0444,"dy":0.0017,"dx":0.0017,"nx":28,"ny":28,"refTime":"2024-12-31T09:00:00:Z","depth":0,"parameterNumber":3,"parameterNumberName":"V-component_of_WINDS"},"data":[0,0,0,0,0,0,0,0,0,0,0,0,0,0,0,0,0,0,0,0,0,0,0,0,0,0,0,0,0,0,0,0,0,0,0,0,0,0,0,0,0,0,0,0,0,0,0,0,0,0,0,0,0,0,0,0,0,0,-6.0945,-6.0946,0,-6.1066,-6.1067,-6.1069,-6.0978,-6.0974,-6.097,-6.0966,-6.1087,-6.1093,-6.11,0,0,0,0,0,0,0,0,0,0,0,0,0,-6.0632,-6.0638,-6.0945,-6.0946,-6.0948,-6.1066,-6.1067,-6.1069,-6.0979,-6.0974,-6.0969,-6.0964,-6.1084,-6.1092,-6.1101,0,0,0,0,0,0,0,0,0,0,0,0,0,-6.0762,-6.064,-6.0945,-6.0917,-6.0916,-6.1065,-6.1067,-6.1069,-6.098,-6.0974,-6.0968,-6.0962,-6.1082,-6.1092,-6.1102,-6.1284,0,0,-6.1133,-6.1138,0,0,0,0,0,0,0,0,-6.0755,-6.0774,-6.092,-6.0919,-6.0918,-6.1001,-6.1001,-6.1141,-6.0981,-6.0955,-6.0966,-6.0959,-6.1063,-6.1074,-6.111,-6.129,-6.1295,-6.1134,-6.1141,-6.1145,-6.1148,0,0,0,0,0,0,0,-6.0746,-6.0768,-6.0993,-6.0922,-6.0921,-6.0898,-6.0909,-6.1027,-6.1041,-6.0957,-6.0951,-6.0967,-6.1061,-6.11,-6.1112,-6.1296,-6.1134,-6.1143,-6.115,-6.1154,-6.1632,-6.1638,0,0,0,0,0,0,-6.074,-6.0761,-6.0989,-6.0996,-6.082,-6.0908,-6.0921,-6.098,-6.1039,-6.1042,-6.0971,-6.0962,-6.1085,-6.11,-6.1116,-6.1333,-6.1145,-6.1155,-6.116,-6.1625,-6.1633,-6.164,0,0,0,0,0,0,-6.0734,-6.0761,-6.0984,-6.0877,-6.0904,-6.092,-6.0987,-6.0986,-6.1025,-6.105,-6.1051,-6.1009,-6.1081,-6.1101,-6.1243,-6.1336,-6.1159,-6.1169,-6.1617,-6.1628,-6.1637,-6.177,0,0,0,0,0,0,-6.0725,-6.076,-6.083,-6.0879,-6.091,-6.1111,-6.0992,-6.0992,-6.1043,-6.1032,-6.1086,-6.1089,-6.1078,-6.1228,-6.1253,-6.1347,-6.1177,-6.1609,-6.1622,-6.1633,-6.1757,-6.1783,-6.1805,0,0,0,0,0,-6.0714,-6.0862,-6.0834,-6.0862,-6.0998,-6.1116,-6.1134,-6.1119,-6.1051,-6.1121,-6.1137,-6.1087,-6.1322,-6.1243,-6.1271,-6.1369,-6.1603,-6.1618,-6.1633,-6.1746,-6.1778,-6.1804,0,0,0,0,0,0,-6.0821,-6.0868,-6.0837,-6.1005,-6.1058,-6.1101,-6.1189,-6.1153,-6.1225,-6.1211,-6.1189,-6.1202,-6.1351,-6.1374,-6.1286,-6.1548,-6.1451,-6.1472,-6.1528,-6.1558,-6.1582,-6.1574,-6.1185,0,0,0,0,0,-6.0865,-6.0958,-6.0993,-6.1138,-6.1166,-6.1173,-6.1224,-6.1209,-6.1261,-6.1283,-6.1309,-6.1362,-6.1447,-6.1504,-6.1583,-6.1759,-6.177,-6.184,-6.1864,-6.1884,-6.1902,-6.1997,-6.2029,-6.1688,-6.1688,-6.1688,0,0,-6.0955,-6.0992,-6.1052,-6.116,-6.1199,-6.1295,-6.1192,-6.1298,-6.137,-6.1298,-6.1435,-6.1456,-6.1513,-6.1673,-6.1744,-6.1696,-6.1999,-6.1902,-6.1918,-6.1926,-6.2015,-6.2048,-6.2076,-6.1698,-6.1696,-6.1695,0,0,-6.1169,-6.1206,-6.1331,-6.1372,-6.1433,-6.1437,-6.1467,-6.1516,-6.1528,-6.1664,-6.1613,-6.1696,-6.1844,-6.1887,-6.1928,-6.2158,-6.2114,-6.2184,-6.2309,-6.2402,-6.2429,-6.2452,-6.2535,-6.2565,-6.2202,-6.2203,-6.2203,0,-6.1273,-6.1417,-6.1399,-6.151,-6.1559,-6.15,-6.1626,-6.1667,-6.175,-6.1785,-6.173,-6.1914,-6.1948,-6.2117,-6.2174,-6.2209,-6.2242,-6.2178,-6.2427,-6.245,-6.2472,-6.255,-6.2582,-6.2211,-6.221,-6.2209,-6.2208,0,-6.1543,-6.1643,-6.1737,-6.1821,-6.188,-6.1997,-6.1997,-6.2059,-6.2038,-6.2047,-6.2187,-6.2225,-6.2312,-6.2351,-6.2331,-6.2518,-6.2486,-6.243,-6.2332,-6.2513,-6.2586,-6.2616,-6.2223,-6.222,-6.2217,-6.2215,0,0,-6.1828,-6.19,-6.1935,-6.1972,-6.2035,-6.2112,-6.2226,-6.2313,-6.2366,-6.2425,-6.2521,-6.2647,-6.2595,-6.2642,-6.2626,-6.2707,-6.2888,-6.264,-6.2641,-6.2686,-6.3096,-6.3139,-6.3174,-6.2859,-6.2864,-6.2869,-6.3091,0,-6.2046,-6.2247,-6.2234,-6.2423,-6.2516,-6.2461,-6.2561,-6.261,-6.2621,-6.2701,-6.2713,-6.2803,-6.2727,-6.2755,-6.2833,-6.2849,-6.297,-6.2833,-6.2947,-6.2951,-6.2936,-6.3212,-6.3258,-6.3467,-6.312,-6.3125,-6.3128,0,-6.2327,-6.2397,-6.2596,-6.2645,-6.2683,-6.2773,-6.2852,-6.2928,-6.2982,-6.2984,-6.3037,-6.3008,-6.3122,-6.3021,-6.3178,-6.3086,-6.3131,-6.3146,-6.3153,-6.3164,-6.3051,-6.3231,-6.3533,-6.3564,-6.3173,-6.3169,-6.3166,0,-6.2516,-6.266,-6.2798,-6.2831,-6.2891,-6.2956,-6.2984,-6.3032,-6.3084,-6.3152,-6.3186,-6.3266,-6.3309,-6.3371,-6.3364,-6.3291,-6.3524,-6.3422,-6.3529,-6.3529,-6.3581,-6.3578,-6.3895,-6.3609,-6.3609,-6.3608,-6.3608,0,-6.2761,-6.2885,-6.2884,-6.2969,-6.3106,-6.3089,-6.3225,-6.3245,-6.3288,-6.3375,-6.3331,-6.3414,-6.3398,-6.348,-6.3475,-6.3606,-6.3626,-6.3631,-6.3628,-6.3635,-6.3635,-6.3666,-6.3651,-6.3617,-6.3615,-6.3613,-6.3612,0,-6.2996,-6.3001,-6.3147,-6.3192,-6.3207,-6.3306,-6.3344,-6.3423,-6.3431,-6.3542,-6.3567,-6.3579,-6.3673,-6.3672,-6.3778,-6.3774,-6.3936,-6.3916,-6.3919,-6.3915,-6.4022,-6.4013,-6.4371,-6.4417,-6.4101,-6.4104,-6.4106,0,-6.3153,-6.3247,-6.3303,-6.3359,-6.3391,-6.3482,-6.3535,-6.3522,-6.358,-6.3648,-6.372,-6.381,-6.3882,-6.4034,-6.4052,-6.4133,-6.4115,-6.4235,-6.4127,-6.4132,-6.4118,-6.4113,-6.4122,-6.4256,-6.426,-6.4263,-6.4265,0,-6.3431,-6.3428,-6.3508,-6.359,-6.3656,-6.3719,-6.3777,-6.3825,-6.3818,-6.3885,-6.3981,-6.4037,-6.4147,-6.4237,-6.4315,-6.4341,-6.4303,-6.4299,-6.4328,-6.4337,-6.4336,-6.4339,-6.3977,-6.4291,-6.4288,-6.4287,-6.4285,-6.4284,-6.3632,-6.3713,-6.3766,-6.3857,-6.3899,-6.3954,-6.4032,-6.405,-6.4131,-6.422,-6.4206,-6.4314,-6.4364,-6.4466,-6.45,-6.4583,-6.4541,-6.4583,-6.4594,-6.4605,-6.4617,-6.4322,-6.4597,-6.4596,-6.4595,-6.4595,-6.4594,0,-6.3908,-6.3939,-6.4023,-6.4106,-6.4178,-6.4136,-6.4197,-6.426,-6.4356,-6.4406,-6.4478,-6.4589,-6.4676,-6.4701,-6.4785,-6.4847,-6.4831,-6.4869,-6.4865,-6.4872,-6.465,-6.4617,-6.4881,-6.488,-6.488,-6.488,-6.488,-6.488,-6.4061,-6.4197,-6.42,-6.4357,-6.4386,-6.4493,-6.4532,-6.4582,-6.4623,-6.4749,-6.4822,-6.4838,-6.4878,-6.4964,-6.5042,-6.5047,-6.508,-6.5126,-6.5123,-6.4916,-6.4887,-6.486,-6.4829,-6.5133,-6.5133,-6.5338,-6.534,-6.5342]}]]